Location: Home
(42.5358°N, 72.7383°W)
Time: 09:49:08
(UTC-05:00)

Vanguard 2 Rocket - Pass Details

Date: 08 December 2021
Orbit: 553 x 3325 km, 32.9° (Epoch: 22 January)

Event Time Altitude Azimuth Distance (km) Brightness Sun altitude
Rises 19:27:34 0° 260° (W) 3,417 10.9 -34.1°
Reaches altitude 10° 19:29:48 10° 251° (WSW) 2,712 10.1 -34.5°
Maximum altitude 19:35:53 39° 184° (S) 1,924 8.4 -35.7°
Enters shadow 19:36:00 39° 183° (S) 1,934 8.4 -35.7°
Drops below altitude 10° 19:46:03 10° 122° (ESE) 4,522 - -37.5°
Sets 19:50:56 0° 116° (ESE) 6,001 - -38.4°
